Météo par heure à Al Hudaydah

Ce jour, 14 Mai, Vendredi

Heure Température Précipitation Vent Pression Humidité
00:00 +36°C° 0 mm 3 m/s 749 mmHg 43%
01:00 +35°C° 0 mm 4 m/s 748 mmHg 48%
02:00 +35°C° 0 mm 4 m/s 748 mmHg 52%
03:00 +34°C° 0 mm 4 m/s 748 mmHg 57%
04:00 +34°C° 0 mm 3 m/s 748 mmHg 60%
05:00 +33°C° 0 mm 3 m/s 749 mmHg 64%
06:00 +32°C° 0 mm 2 m/s 749 mmHg 68%
07:00 +34°C° 0 mm 2 m/s 749 mmHg 60%
08:00 +36°C° 0 mm 2 m/s 750 mmHg 52%
09:00 +36°C° 0 mm 1 m/s 750 mmHg 44%
10:00 +39°C° 0 mm 3 m/s 750 mmHg 39%
11:00 +41°C° 0 mm 4 m/s 749 mmHg 34%
12:00 +42°C° 0 mm 6 m/s 749 mmHg 29%
13:00 +42°C° 0 mm 6 m/s 748 mmHg 30%
14:00 +43°C° 0 mm 7 m/s 748 mmHg 32%
15:00 +41°C° 0 mm 8 m/s 747 mmHg 33%
16:00 +40°C° 0 mm 7 m/s 747 mmHg 38%
17:00 +39°C° 0 mm 7 m/s 747 mmHg 42%
18:00 +38°C° 0 mm 6 m/s 747 mmHg 47%
19:00 +36°C° 0 mm 5 m/s 748 mmHg 51%
20:00 +36°C° 0 mm 5 m/s 748 mmHg 56%
21:00 +35°C° 0 mm 4 m/s 749 mmHg 60%
22:00 +34°C° 0 mm 4 m/s 749 mmHg 63%
23:00 +34°C° 0 mm 4 m/s 749 mmHg 66%

Demain, 15 Mai, Samedi

Heure Température Précipitation Vent Pression Humidité
00:00 +33°C° 0 mm 4 m/s 749 mmHg 69%
01:00 +33°C° 0 mm 3 m/s 748 mmHg 70%
02:00 +33°C° 0 mm 3 m/s 748 mmHg 71%
03:00 +32°C° 0 mm 2 m/s 748 mmHg 72%
04:00 +31°C° 0 mm 3 m/s 748 mmHg 72%
05:00 +31°C° 0 mm 3 m/s 748 mmHg 73%
06:00 +31°C° 0 mm 3 m/s 749 mmHg 73%
07:00 +33°C° 0 mm 3 m/s 749 mmHg 67%
08:00 +35°C° 0 mm 3 m/s 749 mmHg 61%
09:00 +36°C° 0 mm 3 m/s 750 mmHg 55%
10:00 +37°C° 0 mm 3 m/s 749 mmHg 48%
11:00 +40°C° 0 mm 4 m/s 749 mmHg 41%
12:00 +42°C° 0 mm 5 m/s 748 mmHg 34%
13:00 +42°C° 0 mm 6 m/s 748 mmHg 35%
14:00 +41°C° 0 mm 7 m/s 747 mmHg 36%
15:00 +41°C° 0 mm 8 m/s 747 mmHg 37%
16:00 +40°C° 0 mm 7 m/s 747 mmHg 40%
17:00 +39°C° 0 mm 7 m/s 747 mmHg 43%
18:00 +38°C° 0 mm 6 m/s 748 mmHg 47%
19:00 +36°C° 0 mm 5 m/s 748 mmHg 52%
20:00 +35°C° 0 mm 5 m/s 749 mmHg 57%
21:00 +34°C° 0 mm 4 m/s 749 mmHg 62%
22:00 +34°C° 0 mm 3 m/s 749 mmHg 63%
23:00 +34°C° 0 mm 3 m/s 749 mmHg 64%

Après-demain, 16 Mai, Dimanche

Heure Température Précipitation Vent Pression Humidité
00:00 +34°C° 0 mm 3 m/s 748 mmHg 65%
01:00 +34°C° 0 mm 3 m/s 748 mmHg 65%
02:00 +34°C° 0 mm 2 m/s 748 mmHg 65%
03:00 +32°C° 0 mm 2 m/s 747 mmHg 65%
04:00 +32°C° 0 mm 2 m/s 748 mmHg 66%
05:00 +32°C° 0 mm 2 m/s 748 mmHg 68%
06:00 +31°C° 0 mm 2 m/s 748 mmHg 69%
07:00 +32°C° 0 mm 2 m/s 749 mmHg 63%
08:00 +35°C° 0 mm 3 m/s 749 mmHg 57%
09:00 +36°C° 0 mm 3 m/s 749 mmHg 52%
10:00 +37°C° 0 mm 4 m/s 749 mmHg 45%
11:00 +40°C° 0 mm 4 m/s 749 mmHg 37%
12:00 +41°C° 0 mm 5 m/s 748 mmHg 30%
13:00 +41°C° 0 mm 5 m/s 748 mmHg 32%
14:00 +41°C° 0 mm 6 m/s 747 mmHg 33%
15:00 +41°C° 0 mm 6 m/s 747 mmHg 34%
16:00 +41°C° 0 mm 6 m/s 747 mmHg 36%
17:00 +40°C° 0 mm 5 m/s 747 mmHg 38%
18:00 +38°C° 0 mm 4 m/s 748 mmHg 40%
19:00 +37°C° 0 mm 4 m/s 748 mmHg 44%
20:00 +36°C° 0 mm 4 m/s 748 mmHg 48%
21:00 +35°C° 0 mm 3 m/s 748 mmHg 52%
22:00 +35°C° 0 mm 3 m/s 748 mmHg 52%
23:00 +35°C° 0 mm 2 m/s 748 mmHg 52%

17 Mai, Lundi

Heure Température Précipitation Vent Pression Humidité
00:00 +35°C° 0 mm 2 m/s 748 mmHg 51%
01:00 +35°C° 0 mm 2 m/s 748 mmHg 55%
02:00 +34°C° 0 mm 3 m/s 748 mmHg 59%
03:00 +33°C° 0 mm 3 m/s 747 mmHg 63%
04:00 +33°C° 0 mm 3 m/s 748 mmHg 63%
05:00 +32°C° 0 mm 2 m/s 748 mmHg 63%
06:00 +32°C° 0 mm 2 m/s 748 mmHg 64%
07:00 +34°C° 0 mm 3 m/s 749 mmHg 57%
08:00 +36°C° 0 mm 4 m/s 749 mmHg 50%
09:00 +37°C° 0 mm 4 m/s 749 mmHg 44%
10:00 +40°C° 0 mm 5 m/s 749 mmHg 36%
11:00 +42°C° 0 mm 5 m/s 749 mmHg 29%
12:00 +45°C° 0 mm 5 m/s 748 mmHg 22%
13:00 +44°C° 0 mm 6 m/s 748 mmHg 22%
14:00 +44°C° 0 mm 7 m/s 748 mmHg 21%
15:00 +44°C° 0 mm 7 m/s 747 mmHg 20%
16:00 +43°C° 0 mm 7 m/s 747 mmHg 25%
17:00 +41°C° 0 mm 6 m/s 747 mmHg 29%
18:00 +40°C° 0 mm 6 m/s 748 mmHg 34%
19:00 +37°C° 0 mm 5 m/s 748 mmHg 41%
20:00 +36°C° 0 mm 5 m/s 748 mmHg 48%
21:00 +35°C° 0 mm 4 m/s 749 mmHg 54%
22:00 +35°C° 0 mm 4 m/s 748 mmHg 52%
23:00 +35°C° 0 mm 3 m/s 748 mmHg 50%

18 Mai, Mardi

Heure Température Précipitation Vent Pression Humidité
00:00 +36°C° 0 mm 3 m/s 748 mmHg 48%
01:00 +35°C° 0 mm 4 m/s 748 mmHg 53%
02:00 +34°C° 0 mm 4 m/s 748 mmHg 57%
03:00 +33°C° 0 mm 4 m/s 747 mmHg 62%
04:00 +33°C° 0 mm 4 m/s 748 mmHg 63%
05:00 +33°C° 0 mm 3 m/s 748 mmHg 65%
06:00 +31°C° 0 mm 2 m/s 748 mmHg 66%
07:00 +34°C° 0 mm 3 m/s 748 mmHg 58%
08:00 +36°C° 0 mm 3 m/s 749 mmHg 51%
09:00 +37°C° 0 mm 3 m/s 749 mmHg 43%
10:00 +40°C° 0 mm 4 m/s 749 mmHg 37%
11:00 +42°C° 0 mm 5 m/s 748 mmHg 32%
12:00 +44°C° 0 mm 6 m/s 748 mmHg 26%
13:00 +44°C° 0 mm 7 m/s 748 mmHg 27%
14:00 +44°C° 0 mm 8 m/s 747 mmHg 29%
15:00 +43°C° 0 mm 8 m/s 747 mmHg 30%
16:00 +41°C° 0 mm 8 m/s 747 mmHg 31%
17:00 +40°C° 0 mm 8 m/s 747 mmHg 32%
18:00 +39°C° 0 mm 7 m/s 748 mmHg 34%
19:00 +38°C° 0 mm 6 m/s 748 mmHg 38%
20:00 +36°C° 0 mm 6 m/s 748 mmHg 41%
21:00 +35°C° 0 mm 5 m/s 748 mmHg 45%
22:00 +35°C° 0 mm 4 m/s 748 mmHg 44%
23:00 +35°C° 0 mm 4 m/s 748 mmHg 43%

19 Mai, Mercredi

Heure Température Précipitation Vent Pression Humidité
00:00 +35°C° 0 mm 3 m/s 748 mmHg 42%
01:00 +34°C° 0 mm 3 m/s 748 mmHg 50%
02:00 +33°C° 0 mm 3 m/s 748 mmHg 57%
03:00 +31°C° 0 mm 3 m/s 748 mmHg 65%
04:00 +31°C° 0 mm 3 m/s 748 mmHg 66%
05:00 +31°C° 0 mm 3 m/s 748 mmHg 67%
06:00 +30°C° 0 mm 2 m/s 749 mmHg 67%
07:00 +33°C° 0 mm 3 m/s 749 mmHg 57%
08:00 +35°C° 0 mm 3 m/s 749 mmHg 46%
09:00 +37°C° 0 mm 3 m/s 749 mmHg 36%
10:00 +40°C° 0 mm 4 m/s 749 mmHg 30%
11:00 +42°C° 0 mm 5 m/s 748 mmHg 25%
12:00 +45°C° 0 mm 6 m/s 748 mmHg 19%
13:00 +45°C° 0 mm 7 m/s 748 mmHg 21%
14:00 +44°C° 0 mm 7 m/s 747 mmHg 22%
15:00 +44°C° 0 mm 8 m/s 747 mmHg 24%
16:00 +41°C° 0 mm 7 m/s 747 mmHg 27%
17:00 +40°C° 0 mm 7 m/s 747 mmHg 30%
18:00 +39°C° 0 mm 7 m/s 747 mmHg 33%
19:00 +38°C° 0 mm 6 m/s 748 mmHg 38%
20:00 +36°C° 0 mm 5 m/s 748 mmHg 42%
21:00 +35°C° 0 mm 4 m/s 748 mmHg 47%
22:00 +34°C° 0 mm 4 m/s 748 mmHg 48%
23:00 +34°C° 0 mm 3 m/s 748 mmHg 49%
Voir plus

Nous avons besoin de votre consentement

Meteoprog et ses fournisseurs de services peuvent stocker et accéder à des données personnelles telles que des cookies, des identifiants d'appareils ou d'autres technologies similaires sur votre appareil et traiter ces données pour personnaliser le contenu et les publicités, ainsi que pour fournir des fonctionnalités de médias sociaux et analyser le trafic.

  • Stocker et/ou accéder à des informations sur votre appareil

    Des cookies, des identifiants d'appareils ou d'autres informations peuvent être stockés ou accessibles sur votre appareil aux fins indiquées ci-dessus.

  • Annonces et contenus personnalisés, mesure des annonces et des contenus, connaissance de l'audience et développement de produits

    Les annonces et le contenu peuvent être personnalisés en fonction d'un profil. D'autres données peuvent être ajoutées pour mieux personnaliser les annonces et le contenu. Les performances des publicités et du contenu peuvent être mesurées. Il est possible d'obtenir des informations sur le public qui a vu les publicités et le contenu. Ces données peuvent être utilisées pour développer ou améliorer l'expérience de l'utilisateur, les systèmes et les logiciels.

En cliquant sur "J'accepte", vous autorisez l'utilisation de cookies, des identifiants d'appareils, des balises web ou d'autres technologies similaires. Vos paramètres peuvent être modifiés dans le navigateur de votre appareil.

Dans certains cas, des intérêts légitimes peuvent être invoqués plutôt qu'un consentement. Vous pouvez en savoir plus à ce sujet dans notre Politique de confidentialité et de cookies.